Location: Stoke Bliss
(52.2667°N, 2.5167°W)
Time: 17:41:40
(UTC+00:00)

X-37B - Pass Details

Date: 10 December 2021
Orbit: 334 x 337 km, 45.0° (Epoch: 11 January)

Event Time Altitude Azimuth Distance (km) Brightness Sun altitude
Rises 18:12:50 0° 234° (SW) 2,101 5.5 -19.4°
Reaches altitude 10° 18:15:16 10° 213° (SSW) 1,266 3.8 -19.8°
Enters shadow 18:16:46 16° 181° (S) 971 2.7 -20.0°
